Meath Environmental Platform

Observations for Trim Market St

Time AQI Temp °C Hum % Pres Pa CO μg/m³ H₂S μg/m³ NO μg/m³ NO₂ μg/m³ O₃ μg/m³ SO₂ μg/m³ PM1 μg/m³ PM2.5 μg/m³ PM10 μg/m³
Tuesday 11 August 2026
20:51 3 26.2 39 65,811 0 10.97 0.95 55.96 43.12 0 2.14 5.05 5.09
20:45 3 26.4 38 65,888 0 11.39 0.97 37.76 61 0 2.85 6.68 8.34
20:44 3 26.5 38 65,902 0 9.66 0.95 35.22 56.08 0 2.14 5.09 5.6
20:40 3 26.7 38 65,939 0 9.73 0.92 34.2 58.24 0 2.14 5.65 6.71
20:36 3 26.9 37 65,966 0 11.3 0.87 35.37 56.71 0 1.43 4.6 5.06
20:35 3 26.9 37 65,968 0 10.07 0.87 34.27 55.97 0 2.85 6.21 7.53
20:34 3 27 37 65,970 0 10.81 0.88 32.17 57.06 0 1.43 4.62 5.88
20:33 3 27 37 65,974 0 11.16 0.88 32.8 58.25 0 2.14 5.69 5.88
20:32 3 27 37 65,977 0 10.33 0.88 30.22 57.56 0 1.43 4.63 5.09
20:31 3 27.1 36 65,983 0 10.97 0.86 39.15 59.07 0 2.14 4.63 5.1
20:30 3 27.1 36 65,987 0 9.8 0.87 32.84 56.61 0 1.43 4.64 5.1
20:29 3 27.2 36 66,023 0 11.93 0.83 34.74 57.26 0 2.85 6.24 6.7
20:28 3 27.2 36 66,011 0 12.89 0.84 36.01 54.31 0 3.56 6.25 7.53
20:27 3 27.2 36 65,995 0 13.77 0.85 47.53 50.99 0 3.56 8.39 10.84
20:26 3 27.3 36 66,001 0 10.75 0.84 40.53 58.61 0 2.14 5.2 5.72
20:25 3 27.3 36 66,009 0 9.52 0.84 32.94 57.33 0 3.56 5.74 6.7
20:24 3 27.3 36 66,025 0 10.22 0.87 33.58 58.38 0 2.14 5.21 5.73
20:23 3 27.3 36 66,013 0 10.94 0.86 34.19 58.84 0 3.56 6.29 6.69
20:14 3 27.6 34 66,025 0 7.45 0.82 31.57 56.51 0 2.14 6.35 6.69
20:13 3 27.6 34 66,035 0 7.85 0.83 40.43 51.73 0 2.14 5.82 6.69